Flag for U.S.A. Weather past 2 weeks in Richmond, Virginia, U.S.A.

Now
78 °F

Partly sunny.


Feels Like: 80 °F
Forecast: 63 / 86 °F
Wind: 8 mph from Northwest

Location: Richmond International Airport

Current Time: Sep 21, 2014 at 12:43:52 PM

Latest Report: Sep 21, 2014 at 11:54 AM


Visibility: 10 mi

Pressure: 29.85 "Hg

Humidity: 56%

Dew point: 61 °F

Location of RichmondLocation

Historic Weather in Richmond — Graph

°F

Richmond temperature yesterday

Maximum temperature yesterday: 84 °F (at 2:54 PM)
Minimum temperature yesterday: 58 °F (at 6:54 AM)
Average temperature yesterday: 69 °F

Past Weeks' High & Low Weather Summary

 TemperatureHumidityPressure
High95 °F (Sep 6, 3:54 PM)96% (Sep 11, 5:54 AM)30.32 "Hg (Sep 11, 5:54 AM)
Low57 °F (Sep 14, 5:54 AM)37% (Sep 20, 1:54 PM)29.85 "Hg (Sep 21, 11:54 AM)
Average71 °F74%30.09 "Hg
* Reported Sep 6 11:54 AM — Sep 21 11:54 AM, Richmond, Weather by CustomWeather, © 2014

Note: Actual official high and low records may vary slightly from our data, if they occured in-between our weather recording intervals... More about our weather records

Advertising

Richmond weather history for previous 24 hours

 ConditionsComfort  
Time TempWeatherWind HumidityBarometerVisibility
11:54 AM
Sep 21
78 °FPartly sunny.8 mph56%29.85 "Hg10 mi
10:54 AM75 °FBroken clouds.10 mph64%29.87 "Hg10 mi
9:54 AM71 °FBroken clouds.7 mph76%29.88 "Hg10 mi
8:54 AM65 °FBroken clouds.No wind91%29.89 "Hg10 mi
7:54 AM64 °FPartly cloudy.3 mph90%29.89 "Hg9 mi
6:54 AM63 °FPassing clouds.6 mph93%29.90 "Hg10 mi
5:54 AM63 °FHigh level clouds.6 mph93%29.88 "Hg10 mi
4:54 AM64 °FHigh level clouds.5 mph94%29.91 "Hg10 mi
3:54 AM65 °FPassing clouds.5 mph91%29.93 "Hg10 mi
2:54 AM66 °FPassing clouds.No wind87%29.96 "Hg10 mi
1:54 AM67 °FMostly cloudy.7 mph87%29.98 "Hg10 mi
12:54 AM66 °FPassing clouds.5 mph90%30.02 "Hg10 mi
11:54 PM
Sep 20
67 °FPassing clouds.3 mph87%30.04 "Hg10 mi
10:54 PM67 °FPassing clouds.3 mph87%30.04 "Hg10 mi
9:54 PM68 °FPassing clouds.5 mph84%30.05 "Hg10 mi
8:54 PM69 °FPassing clouds.6 mph81%30.06 "Hg10 mi
7:54 PM71 °FPartly sunny.6 mph76%30.07 "Hg10 mi
6:54 PM74 °FPartly sunny.8 mph67%30.08 "Hg10 mi
5:54 PM77 °FPartly sunny.8 mph54%30.08 "Hg10 mi
4:54 PM80 °FPartly sunny.10 mph47%30.09 "Hg10 mi
3:54 PM83 °FBroken clouds.5 mph40%30.09 "Hg10 mi
2:54 PM84 °FScattered clouds.10 mph37%30.12 "Hg10 mi
1:54 PM83 °FScattered clouds.8 mph37%30.16 "Hg10 mi
Weather by CustomWeather, © 2014

See weather overviewHow to use our weather pages